Tracking 18980 objects as of 19-Feb-2018
HD Live streaming from Space Station
objects crossing your sky now

MINOTAUR DEB

Track MINOTAUR DEB now!
10-day predictions


NORAD ID: 42922
Int'l Code: 2017-050B
Perigee: 393.4 km
Apogee: 598.3 km
Inclination: 24.5 °
Period: 94.4 minutes
Semi major axis: 6866 km
RCS: Unknown
Launch date: August 26, 2017
Source: United States (US)
Launch site: AIR FORCE EASTERN TEST RANGE (AFETR)

Note: This is SATELLITE DEBRIS
aabbcc
Your satellite tracking list
Your tracking list is empty




NASA's NSSDC Master Catalog

Two Line Element Set (TLE):
1 42922U 17050B   18050.19263395  .00007140  00000-0  18127-3 0  9998
2 42922  24.5108  90.4439 0149176 337.0470  22.3564 15.25693362 27038
Source of the keplerian elements: AFSPC